Wind_Speed
26 26 25 24 24 23 22 22 21 21 21 20 20 20 19 19 19 19 19 19 19 20 21 21 21 21 20 18 17 15 14 14 12 12 13 10 8 7 6 7 6 6 6 5 4 4 3 3 3 2 2 1 3 5 9 13 17 20 24 27 28 29 29 31 32 33 34 36 38 39 39 38 37 35 33 31 31 31 31 31 31 31 30 29 28 28 28 28
26 26 25 25 25 24 24 23 23 23 23 23 23 23 22 22 22 22 21 21 21 21 22 22 22 22 21 20 18 16 14 15 14 12 12 12 10 8 6 6 6 6 6 5 4 3 2 1 1 0 0 0 1 2 3 5 8 12 16 20 23 25 27 29 30 31 32 34 35 37 37 37 36 35 32 31 32 32 33 33 32 31 30 29 29 29 28 27
27 27 27 27 26 26 26 26 26 26 26 25 26 25 25 25 25 25 24 24 23 23 23 23 23 23 23 22 20 17 14 15 16 13 13 13 12 11 10 7 6 6 6 6 6 5 4 4 3 2 2 2 2 3 3 4 5 6 8 12 15 17 19 22 25 27 28 30 32 34 34 34 35 35 33 33 33 34 35 34 33 31 30 30 30 29 28 26
29 29 29 29 29 29 29 29 29 29 29 28 28 28 28 28 28 28 27 27 26 25 25 24 24 24 24 24 22 20 16 16 17 15 13 15 15 14 13 11 8 8 8 8 8 7 6 6 5 5 5 4 4 4 5 4 5 6 8 10 11 12 13 16 20 23 26 29 30 32 33 33 34 35 33 33 35 36 35 34 32 30 29 29 29 28 26 23
31 31 32 31 31 32 32 32 32 32 31 31 31 31 31 31 30 30 30 29 29 28 27 26 26 25 25 25 24 23 20 18 18 17 16 17 19 17 15 14 11 10 10 10 9 9 9 8 8 8 7 6 6 6 6 5 5 6 8 9 10 11 13 14 18 22 26 29 31 32 34 35 35 35 33 34 36 36 34 32 30 28 28 28 27 26 23 21
34 34 34 34 34 34 34 34 34 34 34 34 34 33 33 33 33 32 32 31 31 30 29 28 27 27 26 26 26 25 24 22 21 21 20 19 21 20 16 15 15 14 13 12 11 11 11 11 10 10 9 9 8 8 7 7 7 6 7 9 8 9 11 12 15 20 25 29 33 36 38 39 38 37 35 35 36 34 32 31 29 27 26 26 25 23 21 18
37 37 37 37 37 37 37 37 37 36 36 36 36 35 35 35 34 34 34 33 33 32 31 30 30 29 28 28 27 27 26 26 25 23 22 21 21 22 20 18 18 17 16 15 14 13 13 13 12 12 12 11 10 10 10 9 9 8 8 9 7 7 9 10 10 14 19 25 31 37 42 42 41 40 37 36 36 33 31 30 29 27 26 26 24 21 19 17
39 39 39 39 39 39 39 39 38 38 38 37 37 37 37 37 36 36 36 36 35 35 34 34 33 32 32 31 30 29 28 29 29 27 26 25 24 24 24 22 21 20 19 18 18 16 14 14 15 14 14 13 12 12 12 11 10 10 10 9 8 7 8 10 9 9 11 16 23 31 37 37 37 38 35 34 34 32 30 29 28 28 27 25 22 20 18 16
41 41 41 41 41 41 40 40 40 40 39 39 39 39 39 39 39 39 39 39 38 38 38 37 36 35 35 34 33 32 32 31 32 32 30 29 27 27 27 26 25 23 22 21 21 20 17 16 16 16 16 15 14 13 13 13 12 12 11 10 9 8 8 10 10 10 9 10 15 22 28 29 30 32 31 30 31 29 28 27 27 27 25 22 19 18 17 15
42 42 42 42 42 42 42 42 42 42 42 41 41 41 41 41 41 42 41 41 40 40 40 39 38 38 37 37 36 35 35 34 35 35 34 33 31 30 30 30 28 26 25 25 25 24 20 19 19 18 18 18 16 15 15 14 13 13 12 11 10 9 9 10 10 10 10 9 10 15 21 22 23 26 26 27 27 25 25 24 23 22 20 18 16 16 14 12
44 45 45 45 45 45 45 45 45 45 44 44 44 43 43 43 43 43 43 43 42 41 41 41 40 39 39 39 38 38 37 36 36 37 37 36 35 34 34 33 32 31 29 29 29 26 24 23 22 21 19 19 19 18 17 15 14 14 13 12 11 10 10 10 10 11 12 11 9 11 17 18 18 20 21 23 22 20 20 19 18 17 17 16 15 13 11 10
47 47 47 47 47 47 47 47 47 46 46 46 45 45 45 45 45 45 44 44 43 43 43 42 42 41 41 41 41 40 39 39 38 38 38 38 37 37 36 36 36 35 34 33 31 29 27 25 26 25 21 21 21 20 20 17 16 15 14 13 12 11 11 11 11 11 12 12 10 10 15 16 14 15 14 17 16 14 15 14 15 16 15 14 12 10 9 8
48 49 49 49 49 49 49 49 49 48 47 47 47 46 47 47 47 46 46 46 46 46 46 45 45 44 45 45 44 43 42 42 41 41 41 40 39 38 38 38 39 38 37 36 34 33 30 29 31 29 24 23 22 22 22 20 18 17 14 13 13 12 11 11 10 10 11 12 11 10 14 15 13 13 11 14 14 13 14 13 15 15 15 13 10 8 7 8
50 50 50 50 50 50 50 50 50 49 49 48 48 48 49 49 49 48 48 49 49 49 49 48 48 47 48 48 47 46 45 44 45 45 44 43 42 41 40 40 40 40 40 39 37 36 34 32 33 32 30 28 23 23 24 22 21 19 15 13 14 13 12 10 10 10 10 12 12 11 14 15 13 12 10 12 14 13 14 14 15 15 13 12 9 7 7 8
52 51 52 52 52 52 52 53 52 51 51 51 50 51 52 52 51 50 50 51 51 52 52 51 50 50 50 50 49 49 48 47 48 48 48 47 46 45 43 42 42 42 41 40 39 38 36 36 36 36 35 31 26 26 27 25 23 20 16 14 15 15 13 11 10 10 9 11 12 11 13 14 12 11 9 9 12 12 12 12 14 14 12 11 9 8 7 7
54 54 54 54 54 54 55 55 55 53 53 53 53 52 53 53 52 52 51 52 52 52 53 52 52 51 50 51 50 49 49 49 49 48 48 48 48 47 47 45 44 44 43 42 41 39 38 39 39 39 38 35 31 29 29 29 25 20 18 16 17 17 15 12 11 10 8 9 11 11 12 13 12 11 9 7 10 10 10 10 13 14 12 11 9 8 7 8
56 56 56 56 56 56 57 57 57 55 54 54 54 54 54 54 53 52 52 52 51 51 51 51 51 49 48 48 48 46 46 47 48 47 47 47 48 48 47 47 47 46 45 44 43 42 40 41 41 41 40 39 36 32 32 33 27 20 21 19 18 18 17 14 11 11 9 8 9 10 12 13 12 11 10 7 8 9 8 9 11 13 12 10 9 8 7 9
58 58 58 58 58 58 58 58 58 57 55 55 55 54 54 54 53 51 51 51 50 48 48 47 48 46 44 44 43 43 43 43 43 44 44 44 45 46 46 47 47 47 47 46 45 44 42 43 42 42 42 41 40 37 37 36 28 23 23 21 20 20 19 16 13 12 11 9 9 9 11 13 12 12 12 8 7 9 8 8 10 11 11 10 9 9 8 9
60 60 60 59 59 59 58 59 59 57 55 55 54 54 53 52 52 50 49 49 48 45 44 44 45 44 42 41 39 40 40 39 39 40 40 40 40 42 43 45 46 47 48 48 47 46 45 44 44 44 44 44 43 42 40 36 30 27 25 23 23 23 21 19 15 14 13 11 9 10 11 13 12 11 13 12 7 8 10 9 9 10 11 10 9 10 9 9
62 61 61 60 60 59 58 58 58 57 55 54 53 52 51 50 49 48 48 47 45 44 43 43 44 43 41 38 36 36 36 36 35 34 35 36 36 37 38 39 42 44 45 47 48 47 47 47 47 47 46 45 44 43 42 37 34 31 29 27 26 25 25 21 18 17 15 13 11 10 12 14 14 12 12 13 10 6 10 11 10 10 11 11 10 11 10 9
63 63 62 61 60 59 58 58 57 56 54 53 52 50 49 49 46 45 46 46 44 42 42 42 41 42 40 34 33 33 33 33 31 30 31 32 33 33 34 35 37 40 41 42 45 46 48 49 48 47 45 45 44 44 43 40 37 35 33 30 28 28 28 24 21 19 17 15 12 10 11 13 14 13 11 12 11 6 7 10 10 11 11 11 11 11 10 11
63 63 63 63 61 60 58 57 56 55 53 52 51 50 48 47 45 44 44 45 44 41 41 41 39 40 38 32 31 32 31 30 29 29 27 26 28 29 29 31 33 35 36 38 40 43 46 48 47 47 46 46 45 45 45 43 39 37 36 34 32 32 30 27 25 21 18 17 13 10 11 13 14 13 11 11 9 6 5 9 10 11 11 12 11 11 11 13
63 63 63 63 62 61 58 57 56 55 53 52 51 50 48 46 44 43 42 43 44 40 39 40 37 39 38 32 28 28 31 33 31 27 23 23 25 25 25 26 28 30 32 34 35 37 41 43 45 47 47 47 47 47 47 45 42 41 40 38 37 35 33 31 28 23 19 18 16 13 12 12 12 13 11 10 9 5 4 7 9 11 11 12 12 12 13 15
63 62 62 62 62 61 58 56 55 54 53 52 52 51 49 46 44 43 41 42 44 43 39 38 37 39 39 32 25 27 35 36 31 26 23 24 24 23 23 23 23 24 25 27 30 33 35 37 40 44 46 47 48 48 47 47 46 44 43 43 42 38 36 35 31 26 22 20 18 17 15 12 11 12 11 10 8 5 3 4 7 9 11 12 12 14 15 17
63 62 62 62 61 61 58 56 55 54 53 53 53 52 49 47 44 43 43 40 43 47 41 36 37 40 38 32 29 31 35 36 33 28 25 26 25 24 23 22 21 20 19 20 24 28 30 31 34 38 41 45 47 47 48 48 48 46 46 48 45 40 38 36 33 30 25 22 20 18 16 13 10 11 11 10 8 5 3 4 5 7 10 11 13 15 17 19
64 62 62 62 61 61 60 56 55 54 54 54 54 53 50 48 46 44 45 41 42 50 45 36 37 40 39 36 35 33 32 37 37 30 28 30 29 25 24 23 22 19 16 16 20 24 25 26 29 32 35 38 42 46 48 48 48 49 50 51 46 41 40 38 36 33 29 26 21 18 18 14 12 13 11 10 9 7 6 7 6 7 9 11 13 15 18 20
64 63 62 62 61 62 62 58 55 55 55 55 55 55 52 51 49 47 47 43 43 50 49 41 39 40 41 39 38 35 35 41 38 31 34 35 30 26 25 26 25 21 17 16 20 22 21 21 24 26 28 31 36 42 45 46 49 52 52 50 46 43 42 41 39 35 32 29 22 19 19 16 16 15 11 11 12 12 11 10 10 9 9 11 13 15 18 19
65 64 63 63 62 62 64 61 57 56 57 57 57 56 56 54 52 50 50 45 44 49 50 46 43 41 42 41 40 38 39 42 38 36 39 35 30 30 29 29 27 22 18 19 23 22 19 19 18 18 21 27 31 35 37 40 47 52 50 48 47 45 44 43 40 36 36 32 24 21 21 19 20 18 13 14 16 16 15 14 12 11 11 12 14 15 16 17
67 66 65 65 64 63 65 63 60 59 59 59 59 59 58 58 55 54 52 48 46 49 50 49 47 44 43 43 43 41 41 42 40 39 39 36 34 32 30 29 26 23 22 23 27 24 21 19 15 15 20 23 25 26 28 33 42 47 47 48 49 46 45 45 42 39 39 33 26 26 25 23 24 21 17 18 19 18 17 17 16 14 13 13 15 16 16 17
70 69 67 67 67 65 65 65 63 64 63 62 61 61 61 61 59 57 54 50 50 52 51 50 49 47 45 45 45 43 41 42 40 38 37 37 35 32 31 30 25 25 25 26 30 27 23 19 16 18 20 19 19 20 23 28 35 39 41 45 48 47 48 47 43 42 39 32 30 32 31 28 26 24 23 23 22 19 18 20 20 18 16 15 15 17 18 18
72 72 70 69 69 68 67 66 65 68 68 65 64 64 64 64 63 59 54 52 55 56 52 51 51 50 48 48 48 46 44 42 40 38 37 37 36 33 33 31 28 28 27 29 33 28 22 20 20 21 20 18 17 19 21 24 28 31 34 39 43 46 48 46 44 43 38 34 36 39 36 30 27 28 28 26 24 21 20 21 22 21 20 18 17 18 20 21
75 75 74 72 71 70 70 69 68 69 72 70 68 67 67 67 65 61 56 58 61 58 54 53 53 53 52 51 51 50 48 46 44 42 41 40 38 35 35 34 31 29 28 32 34 26 20 22 23 22 22 21 20 20 21 21 23 26 28 31 34 40 44 44 45 44 40 40 42 42 38 30 28 31 30 28 28 26 23 22 22 22 22 21 20 19 20 22
78 77 77 76 73 72 72 73 72 71 73 75 72 70 71 69 65 62 62 64 64 61 58 57 56 57 56 54 54 54 53 50 48 46 44 43 41 38 38 36 33 31 31 34 32 27 24 25 24 25 27 25 22 21 21 20 20 20 21 24 26 31 35 39 44 45 44 45 45 44 39 29 28 34 34 33 32 29 26 24 23 22 22 22 22 21 21 23
80 80 80 79 76 74 75 76 76 74 74 76 76 74 73 70 67 66 67 68 67 64 62 61 60 60 59 58 58 58 57 55 53 49 47 46 43 41 40 39 37 35 36 36 33 31 29 27 28 30 30 25 21 22 22 19 18 17 19 19 19 23 27 33 41 45 46 47 46 45 39 31 32 38 39 36 33 31 29 27 25 24 24 23 23 24 25 24
83 83 83 82 79 77 77 78 79 79 78 78 78 77 74 71 71 72 72 72 71 68 66 65 65 64 63 63 63 63 61 59 57 53 50 48 45 44 43 43 42 41 39 37 36 36 32 31 33 33 29 25 23 25 24 19 18 19 18 14 16 23 26 29 33 38 43 44 43 43 41 37 38 40 40 37 34 33 32 30 28 27 26 25 25 27 28 27
86 87 87 85 83 80 80 80 81 82 81 81 81 78 75 74 76 76 76 76 74 73 71 70 69 68 67 67 67 65 63 61 60 56 53 50 48 48 47 47 46 45 43 41 40 39 34 35 38 33 29 28 28 28 24 18 18 18 13 14 21 25 22 21 23 28 34 38 41 44 45 44 43 42 41 40 37 36 36 34 33 31 29 28 28 29 30 30
87 89 91 89 87 84 82 82 83 84 85 85 83 79 78 78 79 79 79 79 77 77 76 75 73 71 70 70 69 68 65 64 63 59 56 55 53 52 51 51 50 49 47 46 44 42 38 39 40 35 32 33 32 29 24 19 19 16 14 20 25 22 17 17 18 21 27 32 38 46 49 48 46 44 44 44 42 41 40 38 37 35 33 31 32 32 32 32
87 90 93 92 90 88 87 85 85 86 87 87 85 82 82 82 81 82 82 81 80 80 80 79 78 76 74 72 71 70 69 68 66 63 61 60 58 58 57 56 54 52 51 51 48 45 42 41 41 39 37 37 35 29 24 22 21 21 22 25 23 18 18 18 17 19 23 27 33 41 46 48 47 47 49 48 46 45 44 42 41 39 37 36 36 36 35 35
86 90 93 93 92 92 92 90 89 89 89 88 87 86 86 85 85 85 85 83 83 83 82 82 82 80 77 75 74 73 72 71 70 67 65 65 64 63 61 59 57 54 54 53 50 48 47 44 44 44 42 41 37 29 25 26 27 26 26 25 22 20 20 19 17 17 19 21 26 33 39 44 49 52 53 52 50 49 47 46 44 42 41 40 40 39 38 37
87 90 93 93 92 95 96 95 93 93 91 89 89 90 90 89 88 88 88 87 85 85 85 84 85 84 81 79 78 76 75 74 74 72 70 69 69 67 64 62 60 58 57 56 53 53 52 48 46 48 47 43 38 32 30 32 33 30 28 26 25 22 20 19 16 15 16 17 20 25 30 38 47 53 55 55 53 52 50 49 47 45 44 44 44 43 41 40
89 92 93 92 92 96 99 99 97 96 94 93 92 92 92 92 91 91 91 90 89 88 87 87 87 87 86 84 82 81 79 76 76 76 74 73 74 72 68 65 64 62 61 60 58 58 56 52 49 51 49 44 41 40 39 40 39 35 31 28 27 24 21 18 14 14 16 16 17 20 24 32 42 49 54 57 56 54 53 52 50 48 47 46 46 46 45 43
90 93 94 92 93 96 100 101 100 98 97 96 95 95 94 94 94 94 94 94 92 91 90 90 89 89 89 88 86 85 83 79 78 78 77 77 78 75 70 69 68 66 66 65 63 62 61 57 53 53 51 48 48 47 45 43 42 37 32 30 29 27 23 21 18 20 20 18 19 20 21 30 39 42 47 55 58 57 56 54 53 52 51 50 49 49 48 47
92 94 95 93 94 97 100 102 101 100 99 98 98 97 97 96 96 97 97 97 95 94 93 93 92 91 91 91 90 88 86 84 82 80 79 79 79 76 73 73 72 71 70 68 67 67 65 60 56 56 56 54 53 52 47 44 43 39 34 34 33 31 29 27 26 26 22 18 19 20 21 29 37 38 40 47 54 57 58 56 57 57 55 54 53 51 50 49
95 96 97 95 95 97 100 102 101 101 101 100 100 100 100 100 100 100 99 99 99 98 97 96 95 94 94 93 93 92 90 89 87 84 82 81 80 78 77 76 75 75 74 72 71 70 67 64 62 61 60 57 56 53 49 46 45 43 40 39 37 37 36 34 32 29 22 18 20 21 21 28 37 39 38 40 45 51 57 60 60 60 59 58 56 53 52 51
98 99 100 98 97 98 101 102 102 101 101 101 102 103 102 103 103 103 102 102 102 102 101 100 99 98 97 96 96 95 94 94 91 88 86 84 82 81 80 79 78 77 76 74 73 72 69 69 68 65 61 59 57 54 52 52 52 48 45 42 41 41 41 38 36 30 22 21 22 19 21 28 36 42 40 38 39 43 51 59 62 62 61 60 58 57 55 54
100 101 102 102 100 100 102 103 102 102 102 102 103 104 104 104 105 105 104 104 104 103 103 103 103 102 101 99 98 97 97 97 96 93 91 88 86 85 83 83 81 79 79 77 76 74 72 71 71 69 65 61 59 58 59 60 58 52 49 47 46 46 45 42 38 29 24 26 23 20 24 29 34 41 43 40 37 37 42 50 57 61 63 62 60 59 58 57
103 103 104 104 103 102 104 104 104 105 104 103 103 105 105 105 105 105 106 106 105 104 104 105 106 106 103 101 99 99 99 100 99 97 95 93 91 89 88 86 84 82 82 81 79 77 74 72 73 72 68 64 62 62 64 64 61 56 54 53 50 50 50 45 38 32 32 31 26 26 30 29 31 39 44 42 39 37 37 40 46 54 60 63 63 61 60 60
106 106 106 106 106 106 105 105 106 107 107 105 105 105 105 105 106 106 107 107 106 106 106 107 108 107 105 103 101 101 101 101 101 101 100 98 95 94 92 90 88 86 85 85 83 80 77 75 75 75 71 67 65 65 67 67 65 62 60 58 56 56 54 49 42 39 39 35 30 33 34 29 29 36 39 41 42 40 37 36 38 43 50 58 63 64 63 63
106 107 107 108 109 110 109 108 108 108 109 108 107 106 105 105 106 107 107 107 108 108 109 109 109 108 106 105 103 103 103 103 103 103 103 101 99 98 96 95 93 90 90 89 87 84 81 78 79 77 73 70 69 69 70 71 69 67 65 62 61 59 56 52 48 45 42 38 36 38 34 29 29 32 34 37 40 42 42 38 36 38 41 48 57 63 66 67
99 101 102 104 106 109 110 111 111 112 112 111 109 108 107 107 106 106 107 108 108 110 111 111 110 109 107 106 105 105 105 105 105 104 104 104 103 102 101 99 97 94 94 94 92 88 84 82 82 80 76 73 73 73 74 75 74 72 70 67 64 61 57 54 51 48 45 42 41 40 35 32 32 32 34 36 39 42 44 42 40 39 39 42 47 54 61 67
88 89 91 94 98 101 105 108 110 112 114 114 113 111 110 110 108 107 107 108 109 111 112 111 111 110 108 107 107 107 107 107 106 105 105 105 105 105 104 102 100 99 98 98 96 92 88 86 85 83 79 77 77 78 78 78 78 77 73 67 63 60 57 55 54 52 48 46 45 41 36 36 37 36 36 38 41 42 44 45 44 41 39 39 40 44 50 58
76 77 80 83 86 89 94 99 103 106 111 113 114 115 114 113 112 110 110 110 110 111 112 111 110 111 110 110 109 109 108 107 106 106 107 107 107 107 106 104 103 102 101 100 99 96 92 90 89 87 83 80 81 83 81 81 84 80 70 63 62 62 60 59 59 57 53 51 49 43 39 42 42 39 38 40 41 41 41 44 45 42 40 39 39 40 42 47
Wind_Direction
273 273 274 274 274 274 274 273 273 274 274 275 275 276 277 279 281 283 284 286 288 290 292 295 297 299 300 302 305 310 311 308 313 319 322 327 332 340 345 343 350 0 8 18 27 44 64 79 82 86 103 172 223 235 237 238 242 244 249 252 252 251 250 252 254 255 256 257 258 258 257 257 258 259 262 266 270 271 273 275 278 279 281 283 287 292 294 290
271 272 272 272 272 271 271 271 271 271 271 272 273 274 275 275 276 277 278 280 281 283 286 288 291 293 294 296 297 300 302 298 300 305 307 308 311 314 319 320 322 330 336 340 346 350 352 17 50 44 42 294 288 271 257 250 248 248 252 257 256 254 252 252 254 256 258 261 261 261 260 259 258 257 259 266 271 272 275 279 283 284 286 290 293 297 298 292
269 270 270 270 270 270 270 270 270 270 270 271 272 273 273 274 275 275 276 277 277 279 280 283 285 287 289 291 291 292 292 289 290 294 295 294 293 297 301 299 301 303 307 310 312 312 307 304 302 289 282 283 290 297 291 288 286 277 274 274 269 262 258 255 256 257 259 261 263 263 261 260 260 260 264 271 275 276 279 284 288 290 293 296 297 298 297 290
266 267 268 268 269 269 270 270 270 270 271 271 271 272 273 274 275 275 276 276 277 277 278 279 281 283 284 286 287 287 284 281 283 285 283 281 279 284 291 293 289 285 286 288 290 292 291 289 286 281 278 276 278 283 285 293 301 303 303 297 294 291 281 271 265 263 261 262 264 266 264 264 266 268 273 278 279 280 284 288 290 292 295 297 296 295 293 287
265 266 267 268 269 269 270 270 271 271 271 272 272 272 273 274 275 275 276 276 276 276 276 277 278 279 280 282 283 283 281 277 276 277 273 272 277 282 287 288 284 277 275 275 276 278 278 280 279 277 273 270 270 272 276 285 293 300 303 299 302 308 303 289 278 271 268 266 265 266 268 268 270 273 276 278 278 281 283 285 287 290 293 294 293 292 289 284
266 266 267 268 268 269 270 270 270 271 271 272 272 273 273 274 274 275 275 276 276 277 276 276 276 277 277 278 278 279 278 276 274 273 272 272 277 281 280 278 276 273 270 269 268 270 271 274 274 273 272 270 270 271 273 275 279 285 289 288 297 312 311 299 281 273 271 269 266 264 266 268 269 271 273 275 276 278 279 280 283 286 290 292 291 289 286 280
267 267 268 268 269 269 269 270 270 271 272 272 273 273 274 274 275 275 275 276 276 276 276 276 276 275 275 275 275 275 276 276 274 271 270 269 271 274 273 270 270 271 270 268 266 263 266 269 270 270 270 270 270 271 272 272 273 277 280 281 290 311 314 306 290 275 270 268 266 263 264 267 267 268 270 272 273 272 273 276 279 282 286 288 286 284 282 277
268 268 268 269 269 270 270 270 271 271 272 273 273 274 275 275 275 276 276 276 276 276 276 275 275 275 274 273 273 273 272 273 274 271 269 267 267 269 271 270 269 270 270 268 266 263 261 264 267 269 268 267 268 269 271 272 274 275 278 282 289 305 311 310 307 295 282 271 267 264 265 269 269 268 269 270 270 270 271 274 276 279 282 283 282 281 279 276
268 269 269 270 270 271 271 271 271 271 272 272 273 274 275 275 276 276 276 276 276 276 276 275 275 275 274 273 272 271 269 269 271 271 270 268 267 267 268 269 268 267 267 266 266 265 263 260 261 265 267 266 266 266 269 271 274 276 278 283 289 299 307 312 313 315 311 287 275 269 270 274 273 270 269 269 269 270 272 274 276 277 277 277 277 277 276 275
270 270 270 271 271 271 271 272 272 272 272 273 273 274 274 275 275 275 275 275 276 276 276 276 275 275 274 273 272 270 269 268 267 269 269 267 266 265 265 266 266 265 264 264 265 266 265 261 259 260 263 266 266 265 266 268 272 275 277 281 287 295 305 312 315 324 328 309 292 280 279 285 279 272 270 268 268 271 273 275 274 273 271 271 270 269 269 267
271 271 271 272 272 272 273 273 273 273 274 274 274 275 275 275 274 274 275 275 275 275 274 274 274 274 273 273 272 271 270 268 267 267 267 266 265 263 263 263 264 263 262 262 264 265 264 262 261 257 257 263 266 266 265 265 269 271 275 279 284 294 303 310 316 329 335 329 322 296 291 300 290 280 274 269 269 269 270 270 269 268 265 263 260 258 257 255
271 272 272 272 272 273 273 273 273 274 274 274 274 274 274 273 273 273 273 273 273 272 272 272 272 272 271 270 270 270 269 269 267 266 265 265 264 262 261 261 262 261 260 260 262 263 262 262 261 259 256 258 262 266 267 266 266 266 271 276 281 290 299 307 315 330 339 339 342 316 305 314 303 293 284 273 273 270 268 268 265 263 257 253 249 246 242 239
270 271 271 271 272 272 272 272 272 272 272 273 273 273 272 271 271 271 271 272 271 271 270 270 270 270 269 268 268 268 267 267 266 264 263 263 262 261 260 259 259 260 259 259 259 259 260 259 260 262 259 254 256 262 265 265 266 265 269 274 279 284 291 302 310 326 339 341 350 332 315 326 317 306 294 276 276 273 273 273 264 257 251 245 236 233 229 226
269 269 269 270 270 270 270 270 270 271 271 271 272 272 272 271 271 271 272 272 272 271 271 271 270 269 268 268 267 267 265 264 263 262 261 260 259 259 258 257 258 258 258 257 257 256 256 256 258 261 258 255 255 258 261 261 264 266 269 273 277 279 281 293 303 318 336 339 351 342 320 333 330 312 301 278 274 271 271 272 263 254 244 237 223 215 217 222
269 269 270 270 270 271 271 271 271 271 272 272 272 272 272 272 272 273 273 273 272 272 272 271 270 270 269 268 267 266 264 262 261 260 260 258 257 255 254 253 254 255 256 256 255 254 254 253 254 256 258 258 254 252 256 257 258 263 268 270 272 273 274 282 293 306 326 332 346 347 324 333 335 316 306 280 272 268 265 268 262 251 238 227 215 205 209 223
271 271 271 271 272 272 272 272 272 272 273 273 273 273 273 273 273 273 273 273 273 273 272 271 270 269 268 267 266 265 263 261 259 258 258 257 256 254 252 251 249 250 251 253 253 252 251 250 250 252 255 256 252 250 253 255 255 259 265 266 266 269 270 273 282 290 307 321 335 343 326 329 336 318 304 280 269 267 263 262 258 248 234 220 209 201 208 228
272 272 272 272 272 272 273 273 273 273 273 273 273 273 272 273 273 273 272 272 272 271 271 270 268 267 265 264 264 262 260 260 259 257 255 255 254 253 252 250 248 246 247 248 249 249 249 248 248 250 252 253 252 249 249 253 254 255 260 263 264 266 267 266 271 279 289 302 316 330 322 324 337 327 312 288 262 261 259 255 252 247 234 218 211 206 213 232
271 272 272 272 272 272 272 273 273 273 273 273 273 272 272 272 272 272 271 270 269 269 267 266 265 264 261 260 261 259 258 257 256 255 253 252 252 251 250 249 248 246 245 244 245 245 246 246 247 248 248 249 250 247 247 253 255 252 255 260 262 263 264 263 263 268 275 282 293 307 310 316 331 332 320 306 265 251 250 245 244 243 233 219 216 218 219 232
270 271 271 271 271 271 271 272 272 272 272 271 271 271 271 271 271 270 269 268 267 265 261 260 261 260 257 257 257 256 256 254 253 253 253 251 250 250 249 248 248 246 244 243 242 242 242 243 243 243 243 245 248 248 250 253 253 250 251 254 257 258 260 259 257 258 262 268 276 285 295 306 319 328 324 323 303 253 242 238 233 230 226 219 225 230 223 226
270 270 270 269 270 270 270 270 270 270 270 269 268 269 269 268 268 268 266 264 263 261 259 258 259 258 256 254 253 253 254 252 250 250 250 249 248 248 248 248 247 246 244 243 242 240 240 239 240 241 243 246 249 251 252 252 249 248 246 246 251 254 256 255 253 253 253 257 267 279 291 299 308 320 325 330 334 284 241 234 229 222 222 222 228 234 224 216
270 269 269 268 268 268 268 268 268 268 268 267 265 265 265 265 265 264 263 262 260 259 259 258 258 258 255 252 250 250 251 250 248 247 247 246 245 245 246 245 245 245 245 243 242 240 239 239 239 241 243 246 247 249 251 250 247 246 245 243 246 249 252 252 250 248 248 250 255 272 287 294 300 312 323 327 337 320 247 232 229 226 227 226 222 224 219 204
269 269 269 268 267 266 265 265 265 265 265 264 263 262 261 262 261 260 260 260 259 256 257 256 257 258 255 248 248 250 249 248 245 244 244 245 243 242 242 242 243 244 244 243 242 241 240 240 240 240 240 241 243 245 246 247 245 243 243 241 241 243 247 250 248 245 246 247 247 255 272 284 292 302 316 320 324 323 258 238 238 235 231 225 214 206 205 197
268 268 267 267 266 265 264 263 263 263 262 261 260 259 258 258 258 257 256 257 257 254 252 254 255 256 254 246 244 251 250 243 240 241 242 244 243 239 238 240 241 242 242 242 242 242 241 241 240 239 238 238 239 241 243 245 244 241 241 239 238 239 242 245 245 243 242 244 243 242 251 268 284 295 305 307 309 311 269 244 244 238 224 214 201 190 193 192
266 265 265 265 264 264 263 261 260 260 260 259 258 257 257 256 255 254 252 253 257 254 248 250 252 253 254 248 238 243 248 244 238 237 239 241 241 240 237 237 238 239 240 242 243 243 242 241 240 239 238 238 238 239 241 243 243 241 241 240 237 236 238 241 244 243 240 239 239 238 241 251 271 288 292 293 296 300 268 240 232 221 206 196 189 184 188 187
264 263 263 263 263 262 261 259 258 257 256 256 256 256 255 254 251 251 250 249 255 257 248 244 250 252 253 249 236 235 247 251 241 232 236 240 239 239 239 238 241 240 238 240 243 244 242 240 240 239 238 238 237 238 238 239 241 241 240 240 238 237 238 240 242 243 241 237 236 236 238 243 259 275 278 280 282 272 235 213 197 184 179 181 181 180 181 179
262 262 261 261 261 261 259 257 256 255 254 254 254 255 254 252 250 248 248 247 251 257 253 243 245 251 253 249 241 236 242 251 245 234 237 241 236 236 242 245 247 241 235 238 245 244 240 239 240 239 239 239 238 237 237 237 239 239 238 239 240 239 239 240 241 241 242 239 233 233 235 235 246 257 265 270 265 245 216 198 182 166 164 170 172 172 173 175
260 260 259 259 260 261 260 257 255 254 253 252 252 253 252 250 248 246 246 246 247 254 257 250 243 246 250 250 246 239 237 245 248 242 242 241 237 238 244 246 244 238 233 242 250 246 239 239 240 240 241 241 239 238 237 238 239 239 238 241 242 240 240 240 240 239 242 241 235 233 232 229 236 243 254 264 252 233 215 198 190 183 175 171 170 169 171 176
259 258 257 258 258 259 261 259 256 254 252 251 250 250 250 249 248 246 245 245 246 251 254 253 247 245 247 249 248 243 239 243 246 245 245 244 241 242 243 244 241 236 234 245 251 247 241 240 238 238 240 240 240 239 238 238 239 239 239 240 241 239 239 240 240 239 240 241 238 237 233 226 231 231 237 253 247 230 216 203 197 194 192 185 178 177 178 182
258 257 256 257 256 257 259 260 259 256 253 251 249 248 249 249 247 246 246 245 245 248 249 251 250 247 246 247 248 245 243 243 242 242 246 246 244 243 244 245 242 237 237 245 249 245 243 241 234 237 241 240 241 240 239 240 241 240 239 239 240 238 238 238 239 237 238 239 238 239 234 227 228 226 226 240 242 231 220 213 208 203 201 198 189 187 187 189
258 257 255 256 256 255 256 258 259 258 255 252 250 249 247 248 247 246 246 246 245 246 246 248 250 249 248 247 247 245 244 243 241 240 243 245 245 244 245 246 242 238 238 245 248 243 240 241 238 244 247 242 240 238 238 242 244 241 239 240 240 237 236 236 236 235 236 235 233 233 231 226 226 226 224 231 235 232 228 223 218 213 211 208 200 195 194 195
258 257 255 255 255 255 255 255 256 257 256 253 251 250 248 248 247 246 245 246 246 245 245 247 249 249 248 247 246 245 243 242 240 238 239 243 243 242 244 243 240 239 240 245 248 242 239 244 244 247 249 244 240 239 238 243 246 243 240 240 240 239 238 236 235 235 233 229 228 230 229 226 227 229 227 228 230 232 232 229 225 222 219 215 210 204 200 199
258 257 256 254 254 254 255 254 253 254 255 255 252 251 250 248 248 247 247 247 247 246 245 246 247 247 246 245 245 244 242 240 238 236 237 239 241 241 243 243 240 241 242 247 250 246 241 246 246 247 249 245 243 243 242 245 248 246 244 245 244 243 241 238 236 235 230 226 228 233 232 226 228 233 232 229 229 229 230 232 230 229 226 221 216 213 208 205
259 257 256 255 253 252 253 254 252 251 252 254 253 251 250 249 249 249 248 247 247 246 245 244 245 245 244 243 244 244 243 241 238 236 236 238 239 239 241 243 241 241 242 246 250 248 242 242 244 246 246 243 242 245 246 247 248 248 248 247 247 247 243 239 237 234 229 226 227 233 234 226 227 235 235 231 229 229 228 232 234 233 231 227 222 219 216 212
259 258 257 255 253 251 251 252 252 251 250 252 252 252 251 250 250 249 248 248 248 246 245 243 243 243 244 243 242 242 242 242 240 237 236 237 237 238 241 242 241 239 240 242 246 245 242 241 243 244 244 244 245 249 249 247 249 250 247 246 251 252 244 237 236 234 231 228 226 231 233 226 223 231 234 232 231 230 230 232 234 235 234 231 228 225 223 219
258 258 257 255 254 252 250 250 251 251 250 250 251 251 251 251 250 248 247 247 247 247 246 244 242 242 242 242 242 242 241 242 242 239 237 236 237 239 240 241 241 239 239 241 241 241 239 240 243 242 243 246 247 249 249 246 248 252 251 250 254 251 242 238 238 237 236 233 229 231 232 227 223 227 233 234 232 230 231 232 232 235 236 234 232 230 229 226
258 258 257 256 254 252 251 250 250 250 250 250 250 250 250 250 249 248 246 246 246 246 246 245 243 241 242 242 243 243 242 242 243 241 239 238 236 238 240 241 242 241 240 239 238 239 238 240 243 243 245 247 247 249 251 250 251 254 256 252 252 253 249 245 245 241 238 236 232 229 229 226 224 226 231 234 233 231 229 230 230 232 234 235 235 234 232 230
258 258 257 256 255 253 252 250 250 250 250 249 249 249 249 248 248 248 247 246 245 245 245 245 244 242 241 242 243 244 244 244 244 242 241 240 238 237 239 241 242 241 240 239 238 239 238 240 245 247 246 248 248 250 253 254 256 259 257 253 255 260 262 254 249 244 236 232 231 228 226 225 223 224 229 231 233 233 230 228 228 229 231 234 236 235 234 232
259 258 258 257 256 254 253 251 250 249 249 249 249 248 248 248 248 247 246 245 245 244 244 244 244 243 241 242 243 244 244 245 245 244 242 241 240 239 238 239 240 240 241 241 240 240 240 241 247 249 247 249 250 252 254 256 257 258 256 257 261 266 268 261 255 251 240 232 234 232 229 227 224 223 226 228 230 233 233 230 228 226 228 231 235 235 236 235
259 258 257 257 256 255 254 252 250 249 249 248 248 247 247 246 246 247 247 246 245 244 243 243 244 243 242 241 242 242 243 244 245 244 243 243 242 241 240 240 241 241 243 243 243 243 243 242 246 249 249 250 251 252 255 256 255 255 256 260 264 263 264 266 265 263 251 236 237 236 232 231 228 224 225 226 227 230 233 234 231 228 227 229 234 235 235 236
258 257 257 257 256 255 254 252 251 250 249 248 247 247 246 246 245 246 246 246 245 244 243 243 243 244 243 242 241 241 241 242 243 243 243 244 243 242 242 241 242 242 244 244 243 244 244 241 244 249 250 250 253 253 254 254 253 253 254 257 260 259 263 270 275 277 266 248 242 239 234 234 231 227 226 226 226 228 230 233 234 232 230 228 231 234 235 235
258 257 256 256 255 254 254 253 251 250 249 248 247 247 246 245 245 245 245 245 245 244 244 243 243 243 244 243 242 241 240 240 241 243 243 243 244 243 242 242 242 242 243 243 243 243 244 242 243 248 250 251 252 250 248 248 249 250 251 253 257 260 267 274 280 278 269 258 250 241 238 241 235 229 227 227 226 227 228 231 234 235 235 233 231 233 234 236
257 256 256 255 254 253 253 253 252 250 249 248 247 247 246 246 245 244 244 244 244 243 243 243 242 243 244 244 244 242 241 239 240 241 242 243 244 245 244 244 244 243 243 244 244 244 245 243 243 247 251 250 250 249 247 247 249 251 253 256 259 263 269 274 273 266 258 254 252 245 245 250 243 234 230 228 226 227 227 229 231 233 235 235 235 234 234 235
256 256 255 254 253 253 252 252 251 251 250 249 247 247 246 246 245 244 244 244 243 243 243 242 242 242 243 244 245 245 243 241 240 240 241 242 243 244 244 244 244 244 244 244 245 246 246 246 245 247 249 250 251 251 250 250 253 255 257 258 260 264 266 264 260 257 255 254 257 252 252 257 253 244 238 233 229 227 227 227 230 231 233 234 235 236 235 236
258 257 256 254 253 252 252 252 251 250 249 249 248 246 245 245 245 244 244 243 243 242 242 241 241 241 241 242 244 245 245 244 242 241 241 241 242 243 244 244 244 244 244 243 244 246 246 247 247 246 248 251 252 253 253 255 256 257 258 260 261 262 261 258 256 255 256 256 257 255 252 257 260 256 247 240 235 230 227 227 228 231 232 233 234 236 236 237
259 258 258 256 254 253 252 252 251 250 249 248 247 246 245 244 244 244 243 243 242 242 241 241 240 240 240 240 241 243 245 246 245 243 242 242 242 243 244 244 244 244 245 244 244 245 245 247 247 247 248 250 252 253 254 254 254 253 254 256 257 257 256 254 252 251 251 252 253 252 244 244 256 262 258 249 242 237 232 229 229 230 233 233 234 235 236 238
259 258 258 257 256 254 254 253 252 251 250 248 247 247 246 245 244 244 243 243 243 242 241 241 240 240 239 239 239 240 242 244 245 245 244 243 244 244 244 245 245 245 246 246 245 245 244 245 247 248 247 248 249 250 251 251 251 250 250 251 252 253 254 252 251 250 252 253 252 252 245 239 247 259 263 260 250 245 241 236 232 231 233 235 235 235 236 238
261 259 258 257 256 255 254 253 253 252 251 250 248 247 246 246 245 244 244 243 243 243 242 241 241 240 239 238 238 238 240 242 243 244 244 244 244 244 245 245 245 245 246 246 246 246 245 245 246 247 247 247 248 250 251 253 252 251 251 251 252 253 254 254 252 252 252 253 253 254 252 246 244 250 260 266 261 253 249 246 240 236 234 235 237 237 237 238
262 260 258 257 256 255 254 253 252 252 252 251 250 249 247 246 245 245 244 244 244 243 243 242 241 241 240 239 238 238 238 239 241 242 243 243 243 244 244 244 245 245 246 246 246 246 245 245 246 246 246 247 247 249 250 252 252 251 251 251 251 252 253 254 253 252 253 252 251 252 252 250 249 251 256 265 268 264 257 252 249 243 237 236 236 236 237 238
264 261 259 257 256 255 253 252 251 251 251 250 250 249 248 247 246 245 245 244 244 243 243 242 242 241 241 240 239 238 238 238 239 240 242 243 243 243 243 243 244 244 245 245 245 245 245 245 246 246 246 246 247 247 248 250 250 250 250 249 250 251 252 253 253 252 254 253 251 253 255 252 252 253 254 257 263 266 265 259 253 248 241 237 236 235 235 237
265 263 261 258 256 255 253 252 250 250 249 249 249 248 248 247 246 245 245 244 244 243 243 243 242 242 241 240 240 239 238 238 238 239 240 241 242 242 242 243 243 243 243 244 244 244 244 244 245 246 245 246 246 246 247 248 249 249 249 248 249 251 252 254 255 254 255 256 256 257 257 254 251 250 252 252 253 258 263 263 259 253 246 240 238 238 236 236
265 263 261 259 257 255 254 252 250 249 248 248 247 247 247 247 246 245 245 245 244 244 243 243 242 242 242 241 240 239 239 238 238 238 239 240 241 242 242 242 242 242 243 244 244 244 243 244 244 245 245 245 246 246 246 247 248 248 248 249 251 254 255 255 255 255 254 255 256 256 256 256 253 249 248 250 251 253 258 261 261 259 254 247 243 242 241 239
265 263 261 259 257 254 253 252 250 249 248 247 246 246 246 246 246 245 245 244 244 244 243 243 242 242 241 241 240 240 239 239 239 239 239 239 241 242 243 242 242 242 243 243 244 244 243 243 244 244 243 244 245 246 246 246 247 248 250 253 255 256 255 254 254 253 253 253 254 254 254 254 253 250 249 250 250 252 254 256 257 258 259 257 252 247 245 244
Height
10981 10981 10981 10981 10981 10981 10982 10982 10982 10982 10982 10982 10983 10983 10983 10983 10983 10983 10983 10982 10982 10981 10980 10980 10979 10980 10980 10980 10981 10981 10981 10980 10979 10979 10978 10978 10978 10979 10978 10977 10977 10977 10977 10977 10976 10976 10975 10975 10975 10975 10975 10975 10975 10975 10976 10976 10977 10977 10977 10976 10977 10979 10980 10980 10979 10979 10979 10978 10977 10977 10977 10977 10978 10978 10979 10979 10978 10978 10978 10979 10979 10979 10978 10978 10978 10978 10977 10975
10979 10979 10979 10979 10979 10979 10979 10980 10980 10980 10980 10980 10980 10981 10981 10981 10981 10981 10981 10981 10980 10980 10979 10979 10978 10978 10978 10979 10979 10980 10980 10979 10978 10979 10978 10977 10977 10977 10978 10977 10977 10976 10976 10976 10976 10976 10975 10975 10975 10974 10974 10974 10974 10974 10975 10975 10975 10976 10975 10974 10975 10977 10977 10977 10977 10977 10977 10976 10975 10974 10974 10974 10974 10975 10977 10977 10976 10976 10976 10976 10976 10975 10975 10975 10975 10974 10974 10973
10976 10976 10976 10976 10976 10976 10977 10977 10977 10977 10978 10978 10978 10978 10978 10978 10978 10978 10978 10978 10978 10978 10978 10977 10977 10976 10976 10976 10977 10978 10979 10978 10977 10977 10977 10976 10976 10976 10976 10977 10976 10976 10976 10975 10975 10975 10975 10975 10974 10974 10974 10974 10974 10974 10974 10974 10974 10974 10974 10973 10973 10973 10974 10975 10974 10975 10974 10973 10972 10971 10971 10972 10971 10972 10975 10975 10973 10973 10972 10972 10972 10972 10972 10972 10971 10971 10971 10970
10973 10973 10973 10973 10973 10974 10974 10974 10974 10974 10974 10975 10975 10975 10975 10975 10975 10975 10975 10976 10976 10976 10976 10976 10975 10975 10974 10974 10974 10976 10977 10976 10975 10976 10976 10974 10974 10975 10975 10975 10976 10975 10975 10975 10975 10975 10974 10974 10974 10974 10973 10973 10973 10973 10973 10973 10973 10973 10973 10972 10971 10971 10971 10971 10971 10971 10971 10971 10970 10968 10967 10969 10968 10969 10972 10972 10969 10969 10970 10970 10970 10970 10970 10969 10969 10969 10969 10968
10970 10970 10970 10970 10970 10970 10970 10971 10971 10971 10971 10971 10971 10972 10972 10972 10972 10972 10972 10972 10973 10973 10973 10973 10973 10973 10973 10972 10972 10973 10974 10974 10974 10974 10974 10973 10972 10973 10973 10973 10974 10974 10974 10974 10974 10973 10973 10973 10973 10973 10973 10973 10973 10972 10972 10972 10972 10972 10972 10972 10971 10970 10969 10968 10968 10968 10968 10968 10968 10965 10963 10965 10965 10967 10970 10969 10966 10967 10968 10968 10968 10969 10968 10968 10967 10967 10966 10966
10967 10967 10967 10967 10967 10967 10967 10967 10967 10967 10968 10968 10968 10968 10969 10969 10969 10969 10969 10969 10969 10969 10970 10970 10971 10971 10971 10971 10970 10970 10970 10971 10972 10972 10972 10971 10970 10970 10972 10972 10972 10972 10972 10972 10972 10972 10972 10972 10972 10972 10972 10972 10972 10972 10971 10971 10971 10971 10971 10971 10970 10969 10968 10967 10966 10965 10965 10965 10966 10964 10961 10961 10963 10966 10968 10966 10964 10965 10966 10966 10967 10967 10967 10966 10965 10965 10964 10964
10963 10963 10963 10963 10964 10964 10964 10964 10964 10964 10964 10964 10964 10964 10965 10965 10965 10965 10965 10965 10965 10966 10966 10967 10967 10968 10968 10968 10968 10968 10968 10968 10969 10969 10970 10970 10969 10968 10969 10969 10969 10970 10970 10970 10971 10971 10971 10971 10971 10971 10970 10971 10971 10971 10970 10971 10970 10970 10970 10970 10968 10967 10967 10966 10965 10964 10963 10963 10963 10962 10958 10958 10961 10963 10965 10963 10962 10964 10964 10964 10964 10965 10965 10964 10964 10963 10963 10963
10960 10960 10960 10960 10960 10960 10960 10960 10960 10960 10961 10961 10961 10961 10961 10961 10961 10961 10961 10961 10961 10962 10962 10963 10964 10964 10965 10965 10966 10966 10966 10965 10965 10966 10967 10967 10967 10966 10966 10967 10967 10967 10967 10967 10968 10969 10969 10970 10969 10969 10969 10969 10969 10969 10969 10969 10969 10969 10969 10968 10967 10966 10966 10965 10964 10963 10962 10961 10960 10959 10956 10955 10957 10960 10961 10960 10959 10961 10961 10962 10962 10962 10963 10962 10962 10961 10962 10962
10956 10956 10956 10956 10956 10956 10956 10956 10956 10957 10957 10957 10957 10957 10957 10957 10957 10956 10957 10957 10957 10957 10958 10959 10960 10960 10961 10961 10962 10963 10963 10963 10962 10962 10963 10964 10965 10964 10964 10964 10964 10965 10965 10965 10965 10965 10967 10968 10967 10967 10967 10967 10968 10968 10968 10967 10968 10967 10967 10967 10966 10965 10965 10964 10963 10962 10960 10959 10958 10957 10954 10953 10955 10956 10957 10957 10956 10957 10958 10959 10959 10959 10960 10960 10960 10960 10960 10961
10951 10951 10951 10951 10952 10952 10952 10952 10952 10953 10953 10953 10953 10953 10953 10953 10952 10952 10952 10952 10953 10953 10953 10954 10955 10956 10956 10956 10957 10958 10959 10960 10959 10958 10959 10960 10961 10962 10961 10961 10961 10962 10962 10962 10962 10962 10964 10965 10965 10965 10965 10965 10965 10966 10966 10966 10966 10966 10965 10965 10965 10964 10964 10963 10962 10961 10959 10957 10956 10956 10953 10952 10954 10954 10955 10955 10954 10955 10956 10956 10957 10957 10957 10958 10958 10959 10959 10960
10947 10947 10947 10947 10947 10947 10947 10947 10948 10948 10949 10949 10949 10949 10949 10949 10948 10947 10947 10948 10948 10948 10948 10949 10950 10951 10951 10951 10952 10953 10954 10955 10955 10955 10955 10956 10957 10958 10958 10958 10958 10959 10959 10959 10959 10960 10961 10962 10962 10963 10963 10963 10963 10963 10963 10964 10964 10964 10964 10964 10964 10963 10963 10962 10961 10959 10958 10956 10955 10954 10951 10951 10953 10953 10953 10952 10952 10954 10954 10954 10955 10955 10955 10956 10957 10958 10958 10959
10942 10942 10942 10942 10942 10942 10942 10942 10943 10943 10944 10944 10945 10945 10945 10944 10943 10943 10943 10943 10944 10943 10944 10945 10946 10946 10946 10946 10947 10949 10950 10950 10951 10951 10951 10951 10953 10954 10954 10954 10954 10955 10956 10956 10956 10957 10958 10959 10958 10958 10961 10961 10961 10961 10961 10962 10962 10962 10962 10962 10962 10962 10961 10960 10959 10958 10957 10955 10954 10952 10950 10950 10952 10952 10952 10950 10951 10952 10952 10953 10953 10953 10954 10955 10956 10957 10957 10958
10937 10937 10936 10936 10937 10937 10937 10937 10937 10938 10939 10940 10940 10940 10939 10939 10938 10939 10939 10939 10939 10938 10939 10940 10941 10941 10941 10941 10942 10944 10945 10945 10945 10945 10946 10947 10948 10949 10950 10949 10950 10950 10951 10952 10953 10954 10955 10955 10954 10955 10958 10958 10959 10959 10958 10959 10960 10960 10961 10961 10960 10960 10960 10959 10958 10957 10956 10955 10953 10951 10949 10949 10951 10951 10951 10950 10950 10951 10951 10951 10952 10952 10953 10954 10955 10956 10957 10958
10932 10932 10931 10931 10931 10932 10931 10931 10932 10933 10934 10935 10935 10935 10933 10933 10934 10935 10934 10934 10933 10933 10933 10935 10936 10936 10935 10935 10937 10938 10939 10940 10939 10939 10940 10942 10942 10944 10944 10945 10945 10945 10946 10948 10949 10951 10952 10952 10950 10951 10953 10954 10957 10957 10956 10957 10957 10958 10959 10959 10958 10958 10958 10958 10957 10956 10955 10954 10952 10950 10948 10948 10950 10951 10951 10951 10950 10950 10950 10951 10951 10952 10952 10953 10954 10955 10956 10957
10926 10926 10926 10926 10926 10926 10926 10925 10926 10928 10929 10929 10929 10929 10927 10927 10928 10929 10929 10928 10928 10927 10928 10929 10930 10930 10929 10929 10931 10932 10933 10934 10933 10932 10933 10935 10937 10938 10939 10940 10940 10941 10941 10943 10945 10947 10948 10948 10947 10947 10948 10950 10954 10954 10953 10954 10955 10956 10957 10957 10957 10956 10957 10956 10956 10955 10954 10954 10952 10950 10948 10948 10950 10950 10951 10951 10950 10950 10950 10951 10951 10951 10952 10952 10953 10954 10956 10957
10920 10920 10920 10921 10920 10920 10920 10919 10920 10922 10923 10923 10923 10923 10921 10921 10923 10924 10924 10923 10922 10921 10922 10923 10924 10925 10924 10922 10926 10926 10925 10927 10927 10927 10927 10928 10930 10931 10933 10934 10935 10936 10936 10937 10939 10942 10944 10944 10943 10943 10944 10946 10949 10950 10950 10950 10952 10955 10955 10955 10955 10954 10955 10955 10955 10954 10954 10954 10952 10950 10949 10948 10949 10949 10950 10951 10950 10950 10950 10950 10951 10951 10952 10952 10953 10953 10955 10956
10914 10914 10914 10914 10914 10914 10913 10913 10914 10916 10917 10916 10916 10917 10914 10915 10918 10918 10918 10917 10917 10916 10916 10916 10917 10920 10919 10917 10920 10920 10918 10920 10921 10922 10922 10922 10923 10925 10926 10927 10929 10930 10931 10932 10934 10936 10939 10939 10938 10939 10941 10942 10944 10947 10947 10946 10950 10954 10953 10953 10953 10952 10953 10954 10954 10953 10953 10953 10952 10951 10949 10949 10949 10949 10949 10950 10950 10949 10949 10950 10950 10951 10951 10952 10952 10953 10954 10955
10908 10907 10907 10907 10907 10908 10907 10906 10907 10909 10911 10910 10909 10910 10909 10910 10911 10913 10912 10911 10911 10911 10910 10908 10910 10913 10913 10912 10914 10913 10913 10914 10914 10915 10917 10917 10917 10919 10920 10921 10923 10924 10926 10927 10928 10931 10933 10933 10935 10936 10936 10937 10939 10942 10942 10943 10948 10951 10951 10952 10951 10950 10950 10952 10952 10952 10952 10952 10952 10951 10950 10949 10949 10948 10948 10949 10949 10949 10949 10949 10950 10950 10951 10951 10952 10952 10953 10954
10901 10900 10900 10900 10900 10901 10901 10900 10900 10902 10904 10904 10903 10903 10904 10904 10905 10907 10906 10905 10905 10905 10904 10902 10903 10907 10908 10909 10910 10908 10908 10910 10908 10909 10911 10913 10913 10913 10914 10916 10917 10918 10920 10921 10923 10925 10927 10928 10929 10929 10930 10931 10933 10936 10937 10941 10946 10947 10949 10950 10949 10948 10949 10950 10951 10951 10951 10951 10952 10952 10950 10948 10948 10948 10947 10947 10948 10948 10948 10949 10949 10950 10950 10951 10952 10952 10952 10953
10893 10893 10893 10893 10893 10894 10894 10893 10893 10895 10897 10897 10897 10897 10898 10899 10901 10901 10899 10899 10899 10899 10898 10897 10897 10900 10903 10905 10905 10904 10904 10904 10904 10905 10906 10907 10908 10908 10909 10910 10911 10912 10914 10915 10917 10919 10920 10921 10921 10923 10926 10928 10930 10932 10934 10939 10942 10944 10946 10946 10946 10946 10946 10948 10950 10949 10950 10951 10952 10951 10950 10948 10947 10947 10946 10946 10947 10947 10948 10948 10949 10949 10950 10950 10951 10951 10952 10952
10885 10885 10885 10885 10886 10887 10887 10886 10887 10888 10890 10890 10890 10892 10892 10894 10896 10896 10893 10893 10894 10895 10893 10892 10893 10893 10898 10902 10901 10900 10899 10898 10900 10902 10901 10902 10903 10904 10905 10906 10906 10906 10908 10910 10912 10913 10913 10914 10917 10920 10923 10925 10927 10928 10930 10934 10938 10939 10941 10943 10944 10943 10943 10946 10948 10948 10949 10950 10951 10951 10949 10948 10947 10947 10946 10945 10946 10946 10947 10948 10948 10949 10949 10949 10949 10950 10951 10951
10877 10877 10876 10877 10878 10880 10881 10880 10880 10882 10883 10883 10884 10886 10887 10888 10890 10891 10888 10886 10887 10891 10889 10888 10889 10887 10891 10898 10896 10896 10895 10894 10897 10897 10898 10898 10898 10900 10901 10901 10901 10902 10904 10904 10906 10907 10907 10910 10913 10916 10918 10920 10922 10923 10924 10927 10932 10934 10936 10938 10939 10939 10940 10943 10944 10946 10948 10949 10950 10950 10950 10948 10947 10946 10946 10945 10945 10946 10947 10947 10948 10948 10949 10949 10948 10949 10950 10951
10870 10869 10868 10868 10869 10872 10874 10874 10873 10875 10876 10876 10877 10879 10881 10883 10884 10884 10884 10881 10880 10885 10885 10884 10885 10881 10884 10893 10894 10892 10888 10888 10893 10893 10894 10895 10894 10896 10896 10896 10897 10898 10899 10900 10901 10901 10902 10906 10908 10910 10912 10915 10916 10918 10919 10922 10926 10928 10929 10932 10934 10935 10937 10939 10941 10944 10946 10947 10948 10949 10949 10948 10946 10946 10946 10945 10945 10945 10946 10947 10947 10948 10948 10948 10948 10948 10950 10951
10862 10862 10861 10860 10860 10862 10866 10868 10867 10868 10870 10869 10869 10871 10874 10877 10879 10878 10879 10877 10873 10876 10880 10881 10880 10877 10879 10888 10892 10887 10880 10883 10889 10890 10891 10891 10890 10892 10892 10892 10894 10894 10895 10896 10897 10897 10899 10902 10903 10904 10906 10908 10911 10913 10915 10917 10920 10922 10924 10925 10927 10931 10933 10935 10938 10942 10944 10945 10946 10947 10948 10947 10946 10945 10946 10945 10945 10945 10945 10946 10947 10947 10947 10947 10948 10948 10950 10951
10854 10854 10853 10852 10852 10853 10857 10861 10861 10862 10863 10862 10862 10864 10868 10871 10872 10872 10872 10874 10869 10866 10873 10878 10876 10873 10875 10883 10885 10881 10878 10879 10883 10886 10887 10886 10887 10888 10888 10889 10890 10891 10893 10894 10893 10892 10895 10898 10898 10898 10900 10903 10905 10908 10909 10911 10914 10917 10918 10916 10921 10927 10930 10933 10936 10938 10941 10942 10944 10946 10947 10947 10946 10945 10945 10945 10944 10944 10945 10946 10946 10946 10947 10947 10948 10948 10950 10952
10844 10846 10846 10845 10845 10844 10847 10853 10854 10855 10856 10856 10856 10857 10861 10863 10865 10866 10865 10869 10867 10857 10863 10874 10873 10869 10871 10875 10877 10878 10878 10873 10875 10884 10883 10881 10883 10885 10886 10886 10886 10888 10890 10890 10889 10888 10891 10893 10892 10894 10897 10898 10900 10901 10903 10906 10909 10910 10909 10909 10917 10925 10927 10929 10932 10935 10938 10940 10942 10945 10945 10946 10946 10945 10945 10945 10944 10944 10944 10946 10947 10947 10947 10947 10948 10948 10950 10952
10835 10837 10837 10837 10838 10835 10837 10843 10847 10848 10849 10849 10850 10850 10853 10855 10857 10859 10858 10863 10863 10854 10855 10866 10868 10866 10866 10868 10870 10874 10873 10866 10871 10879 10875 10875 10881 10882 10882 10882 10882 10885 10887 10887 10885 10885 10888 10888 10888 10891 10894 10894 10894 10895 10898 10903 10902 10900 10902 10908 10916 10920 10922 10925 10928 10933 10935 10937 10942 10944 10944 10946 10945 10944 10944 10943 10943 10943 10943 10945 10946 10947 10947 10948 10948 10949 10950 10952
10825 10827 10828 10828 10830 10829 10827 10832 10838 10841 10840 10841 10842 10843 10845 10846 10849 10851 10852 10857 10858 10851 10850 10855 10860 10863 10862 10862 10863 10867 10866 10864 10869 10871 10869 10873 10877 10877 10877 10877 10879 10883 10884 10883 10880 10881 10884 10884 10886 10889 10889 10888 10888 10891 10896 10898 10894 10893 10901 10907 10909 10914 10918 10920 10925 10930 10931 10934 10940 10941 10942 10944 10943 10943 10944 10942 10941 10942 10943 10944 10945 10946 10947 10947 10948 10948 10949 10951
10814 10817 10819 10818 10820 10822 10820 10822 10828 10830 10831 10831 10833 10835 10836 10837 10841 10843 10845 10851 10852 10846 10844 10847 10852 10857 10858 10857 10857 10859 10861 10861 10864 10865 10866 10869 10870 10871 10873 10873 10876 10879 10879 10878 10876 10878 10880 10881 10884 10885 10883 10883 10886 10889 10891 10890 10886 10890 10899 10901 10902 10909 10912 10914 10921 10925 10927 10933 10938 10937 10938 10940 10940 10941 10942 10939 10939 10941 10942 10943 10943 10944 10946 10946 10947 10947 10949 10950
10803 10806 10809 10809 10810 10813 10813 10815 10818 10817 10818 10822 10824 10825 10827 10828 10831 10834 10839 10845 10844 10839 10839 10842 10845 10850 10852 10852 10851 10853 10855 10856 10859 10861 10862 10863 10864 10867 10868 10869 10873 10874 10874 10874 10871 10873 10877 10879 10881 10879 10879 10881 10883 10885 10885 10883 10883 10888 10895 10895 10897 10902 10905 10909 10916 10919 10925 10933 10933 10929 10931 10935 10936 10938 10937 10936 10937 10939 10941 10941 10941 10943 10944 10945 10946 10946 10947 10949
10792 10793 10797 10799 10800 10802 10805 10807 10809 10805 10804 10811 10814 10815 10817 10819 10821 10827 10835 10837 10831 10831 10836 10838 10839 10842 10844 10845 10845 10847 10848 10850 10853 10856 10857 10857 10859 10862 10863 10864 10867 10868 10869 10868 10865 10870 10875 10875 10876 10875 10876 10878 10879 10880 10880 10880 10881 10885 10889 10890 10892 10896 10900 10906 10911 10915 10923 10928 10923 10921 10926 10932 10934 10933 10933 10935 10936 10937 10938 10938 10940 10941 10942 10943 10944 10945 10946 10947
10780 10781 10784 10787 10790 10793 10794 10796 10799 10796 10793 10796 10802 10805 10806 10809 10813 10820 10828 10825 10819 10824 10831 10832 10833 10833 10835 10837 10838 10839 10840 10842 10846 10848 10850 10851 10854 10857 10857 10859 10862 10863 10865 10862 10861 10867 10872 10871 10871 10872 10872 10873 10874 10875 10876 10877 10878 10882 10885 10886 10889 10891 10895 10902 10906 10910 10918 10919 10916 10918 10924 10931 10932 10930 10931 10933 10933 10934 10935 10936 10938 10939 10940 10941 10942 10943 10944 10945
10767 10769 10770 10773 10780 10784 10783 10783 10785 10788 10786 10783 10788 10794 10795 10799 10807 10814 10816 10812 10811 10818 10823 10825 10825 10824 10826 10829 10829 10829 10831 10834 10838 10841 10844 10846 10849 10851 10852 10854 10857 10859 10859 10857 10858 10863 10865 10866 10867 10867 10866 10868 10870 10871 10873 10874 10875 10879 10881 10883 10885 10887 10891 10896 10898 10903 10909 10910 10912 10915 10922 10931 10932 10927 10927 10928 10929 10932 10933 10934 10935 10936 10937 10939 10940 10941 10942 10943
10754 10756 10756 10759 10767 10773 10773 10771 10771 10775 10776 10773 10775 10780 10784 10792 10800 10802 10803 10801 10803 10809 10812 10815 10816 10816 10817 10820 10819 10820 10823 10825 10829 10835 10838 10840 10844 10846 10847 10848 10850 10853 10852 10852 10855 10857 10859 10861 10861 10861 10861 10864 10867 10868 10869 10871 10873 10875 10877 10880 10883 10883 10885 10888 10889 10895 10900 10902 10908 10912 10919 10928 10928 10921 10920 10924 10927 10930 10931 10931 10933 10933 10935 10936 10937 10938 10939 10940
10742 10741 10741 10744 10752 10759 10760 10760 10760 10760 10763 10764 10764 10768 10775 10785 10788 10788 10790 10791 10792 10798 10801 10803 10805 10806 10808 10809 10809 10811 10815 10819 10822 10827 10831 10835 10840 10841 10841 10841 10842 10844 10846 10848 10849 10850 10853 10855 10853 10855 10858 10861 10864 10863 10865 10869 10871 10871 10874 10878 10878 10875 10878 10883 10886 10891 10895 10900 10907 10911 10916 10922 10920 10917 10917 10921 10925 10927 10928 10929 10930 10931 10931 10933 10934 10935 10936 10937
10730 10726 10726 10730 10737 10742 10746 10749 10748 10747 10750 10751 10753 10759 10768 10772 10771 10773 10778 10780 10783 10787 10789 10790 10793 10796 10798 10799 10799 10802 10809 10813 10814 10819 10825 10829 10832 10833 10833 10834 10834 10837 10840 10842 10842 10844 10849 10849 10846 10851 10856 10857 10858 10859 10862 10866 10867 10868 10872 10874 10870 10869 10876 10882 10885 10887 10891 10897 10902 10904 10908 10912 10914 10915 10915 10917 10920 10922 10923 10925 10926 10927 10929 10930 10931 10931 10932 10934
10717 10712 10710 10714 10721 10727 10731 10735 10735 10735 10736 10736 10741 10750 10755 10755 10757 10760 10763 10768 10773 10775 10776 10777 10781 10785 10788 10790 10792 10796 10801 10804 10805 10812 10818 10820 10823 10825 10825 10825 10826 10829 10832 10834 10836 10840 10844 10843 10843 10849 10852 10851 10853 10856 10860 10863 10864 10866 10869 10867 10865 10869 10875 10878 10880 10883 10886 10891 10892 10894 10899 10903 10909 10912 10910 10911 10914 10915 10917 10919 10921 10924 10926 10926 10926 10927 10928 10930
10702 10698 10695 10698 10706 10711 10715 10718 10720 10720 10721 10724 10730 10737 10739 10741 10744 10745 10747 10754 10759 10763 10765 10765 10767 10772 10777 10781 10785 10788 10792 10793 10796 10803 10808 10809 10812 10813 10814 10816 10818 10822 10824 10827 10831 10836 10839 10840 10840 10844 10846 10846 10849 10854 10858 10860 10861 10862 10862 10862 10864 10869 10871 10873 10876 10878 10882 10886 10887 10889 10895 10900 10904 10906 10904 10904 10908 10909 10911 10914 10916 10920 10922 10922 10922 10923 10925 10927
10686 10683 10679 10683 10691 10694 10695 10699 10703 10704 10707 10712 10718 10721 10724 10727 10730 10730 10733 10740 10745 10749 10753 10754 10755 10759 10766 10771 10774 10777 10782 10784 10786 10792 10796 10798 10799 10802 10806 10810 10814 10818 10819 10822 10828 10831 10833 10836 10837 10837 10840 10842 10846 10852 10855 10856 10856 10857 10858 10860 10862 10865 10867 10869 10873 10875 10878 10883 10884 10886 10892 10894 10895 10896 10896 10898 10902 10904 10906 10909 10912 10915 10918 10919 10918 10920 10922 10924
10669 10666 10663 10669 10677 10675 10673 10678 10685 10687 10692 10699 10702 10703 10707 10712 10715 10718 10720 10725 10730 10735 10739 10743 10745 10748 10753 10759 10762 10765 10771 10775 10777 10780 10785 10787 10788 10792 10798 10803 10807 10812 10813 10817 10822 10822 10824 10831 10833 10831 10833 10838 10843 10849 10851 10850 10851 10853 10855 10857 10858 10861 10863 10866 10870 10872 10874 10878 10880 10882 10885 10885 10884 10888 10890 10892 10896 10899 10902 10904 10907 10910 10913 10915 10915 10916 10919 10921
10651 10648 10646 10655 10661 10656 10652 10657 10664 10670 10676 10682 10685 10687 10692 10697 10701 10704 10705 10709 10715 10721 10725 10731 10734 10737 10740 10744 10749 10753 10759 10765 10768 10770 10775 10777 10775 10781 10789 10795 10798 10803 10805 10808 10811 10813 10815 10823 10827 10825 10828 10835 10839 10841 10843 10843 10845 10848 10851 10853 10854 10857 10860 10863 10867 10868 10870 10873 10875 10877 10879 10877 10875 10880 10884 10887 10891 10895 10898 10900 10903 10905 10908 10910 10912 10913 10915 10917
10632 10629 10628 10638 10642 10637 10635 10637 10643 10652 10658 10663 10668 10672 10677 10681 10685 10689 10690 10693 10701 10707 10711 10716 10721 10725 10727 10730 10735 10740 10746 10755 10759 10760 10765 10766 10764 10771 10782 10786 10789 10793 10796 10798 10802 10804 10807 10813 10820 10822 10825 10829 10830 10831 10836 10838 10840 10843 10847 10850 10851 10854 10857 10860 10863 10863 10865 10868 10870 10873 10875 10870 10868 10873 10877 10880 10885 10889 10893 10896 10898 10900 10902 10905 10907 10909 10912 10914
10613 10611 10611 10619 10622 10619 10618 10618 10624 10634 10639 10644 10651 10656 10660 10664 10667 10671 10674 10679 10686 10692 10696 10701 10707 10712 10715 10719 10723 10727 10733 10740 10746 10749 10753 10755 10756 10764 10772 10775 10778 10783 10785 10790 10794 10795 10799 10807 10814 10817 10818 10820 10822 10824 10829 10833 10836 10840 10843 10846 10848 10851 10853 10855 10857 10858 10861 10866 10867 10870 10871 10866 10863 10867 10871 10874 10879 10884 10888 10891 10892 10894 10897 10899 10902 10905 10908 10910
10595 10593 10593 10600 10604 10602 10600 10600 10607 10615 10620 10625 10632 10636 10640 10645 10648 10653 10658 10663 10669 10673 10678 10684 10691 10697 10702 10707 10710 10714 10719 10723 10730 10736 10741 10745 10748 10754 10758 10762 10766 10770 10774 10780 10784 10786 10793 10799 10802 10806 10811 10813 10816 10819 10824 10829 10831 10834 10837 10840 10843 10844 10846 10849 10851 10854 10859 10863 10864 10866 10869 10866 10860 10860 10864 10868 10873 10878 10881 10884 10886 10888 10891 10894 10897 10900 10903 10905
10577 10576 10575 10579 10586 10587 10582 10582 10589 10595 10600 10607 10612 10614 10620 10625 10629 10634 10640 10646 10650 10654 10661 10668 10675 10680 10686 10693 10698 10702 10705 10708 10714 10722 10728 10734 10739 10742 10746 10750 10754 10759 10763 10769 10774 10778 10786 10788 10789 10797 10804 10807 10811 10814 10817 10818 10818 10823 10829 10832 10835 10836 10839 10843 10846 10851 10856 10858 10859 10863 10865 10863 10858 10854 10858 10863 10868 10871 10874 10878 10881 10884 10886 10889 10893 10896 10899 10901
10557 10558 10556 10557 10564 10569 10566 10566 10573 10576 10580 10588 10592 10594 10600 10606 10611 10617 10623 10627 10631 10637 10645 10652 10656 10660 10667 10677 10686 10691 10693 10695 10700 10707 10714 10721 10726 10730 10735 10738 10743 10749 10752 10757 10763 10768 10776 10780 10781 10786 10794 10800 10804 10806 10805 10804 10808 10816 10822 10824 10827 10829 10831 10836 10841 10848 10852 10853 10856 10859 10859 10859 10858 10853 10852 10856 10862 10866 10869 10872 10877 10881 10883 10886 10890 10892 10895 10897
10536 10537 10537 10537 10541 10547 10548 10549 10555 10556 10559 10568 10573 10575 10582 10589 10593 10599 10604 10609 10615 10622 10629 10632 10634 10640 10652 10664 10673 10678 10681 10683 10687 10693 10698 10706 10712 10717 10722 10726 10731 10737 10741 10744 10750 10756 10765 10771 10771 10775 10783 10791 10796 10798 10796 10796 10802 10810 10814 10816 10820 10821 10823 10829 10838 10844 10845 10847 10853 10853 10852 10855 10856 10852 10849 10851 10856 10861 10865 10868 10872 10876 10879 10882 10885 10888 10891 10893
10511 10512 10514 10517 10518 10522 10526 10531 10535 10536 10539 10547 10553 10557 10564 10571 10576 10581 10586 10592 10599 10605 10609 10612 10616 10625 10637 10648 10657 10664 10668 10671 10676 10679 10682 10691 10698 10703 10709 10714 10719 10725 10729 10732 10737 10744 10753 10760 10761 10764 10774 10783 10788 10790 10788 10788 10794 10800 10803 10808 10812 10813 10817 10824 10832 10836 10837 10843 10847 10845 10846 10852 10853 10851 10850 10850 10851 10853 10858 10863 10866 10869 10872 10875 10877 10881 10884 10886
10482 10484 10488 10494 10495 10496 10502 10509 10513 10516 10519 10525 10532 10538 10545 10552 10558 10563 10568 10574 10581 10585 10588 10593 10600 10609 10620 10630 10639 10647 10653 10657 10661 10665 10669 10676 10683 10689 10695 10700 10706 10714 10717 10718 10725 10733 10742 10749 10750 10754 10765 10774 10777 10780 10779 10778 10783 10788 10792 10798 10803 10806 10812 10819 10824 10828 10831 10837 10839 10838 10843 10848 10849 10848 10849 10849 10848 10846 10849 10854 10858 10861 10864 10866 10869 10872 10876 10877
10454 10457 10461 10468 10470 10472 10477 10483 10490 10495 10497 10503 10512 10519 10524 10531 10537 10544 10549 10555 10561 10565 10567 10575 10583 10592 10603 10613 10621 10629 10636 10640 10645 10653 10659 10662 10667 10674 10679 10685 10694 10701 10703 10705 10711 10721 10732 10738 10739 10745 10756 10763 10766 10769 10768 10767 10771 10777 10782 10789 10795 10801 10808 10813 10818 10821 10825 10830 10832 10834 10839 10842 10843 10844 10845 10845 10844 10842 10842 10845 10849 10853 10857 10860 10863 10866 10869 10871
10429 10433 10437 10441 10444 10447 10451 10456 10464 10471 10475 10481 10491 10499 10504 10510 10517 10525 10531 10536 10542 10545 10547 10557 10567 10576 10585 10595 10603 10611 10617 10622 10632 10642 10646 10648 10653 10658 10663 10671 10680 10685 10689 10692 10698 10710 10722 10727 10729 10736 10745 10752 10755 10755 10755 10757 10760 10764 10773 10784 10793 10799 10804 10808 10810 10813 10818 10822 10824 10829 10835 10836 10836 10838 10839 10838 10838 10838 10838 10839 10842 10847 10851 10855 10859 10861 10863 10865
10409 10412 10415 10417 10419 10424 10429 10432 10438 10447 10452 10459 10470 10478 10484 10490 10496 10504 10511 10516 10521 10525 10528 10539 10551 10558 10566 10575 10583 10590 10598 10608 10620 10627 10629 10635 10640 10642 10647 10656 10663 10669 10676 10680 10685 10697 10709 10715 10719 10724 10734 10744 10743 10739 10745 10747 10744 10753 10774 10789 10792 10793 10797 10799 10800 10804 10810 10813 10817 10825 10829 10828 10827 10830 10831 10831 10832 10834 10836 10835 10837 10842 10846 10850 10853 10856 10857 10858